Regional Weather Roundup
Issued by NWS

Home | Current Version | Previous Version | Text Only | Print | Product List | Glossary On
Versions: 1 2 3 4 5 6 7 8 9 10 11 12 13 14 15 16 17 18 19 20 21 22 23 24 25 26 27 28 29 30 31 32 33 34 35 36 37 38 39 40 41 42 43 44 45 46 47 48 49 50
154
ASUS43 KDMX 280701
RWRIA

WEATHER ROUNDUP FOR IOWA
NATIONAL WEATHER SERVICE DES MOINES IA
200 AM CDT WED JUN 28 2017

NOTE: "FAIR" INDICATES FEW OR NO CLOUDS BELOW 12,000 FEET WITH NO
SIGNIFICANT WEATHER AND/OR OBSTRUCTIONS TO VISIBILITY.

* - THESE STATIONS ARE NOT NWS STATIONS...THUS NOT UNDER NWS
QUALITY CONTROL.  THEY ALSO DO NOT REPORT WEATHER SUCH
AS PRECIPITATION OR FOG.

IAZ001>003-012>014-020>022-031>034-043>046-280800-
   NORTHWEST IOWA

CITY           SKY/WX    TMP DP  RH WIND       PRES   REMARKS
CARROLL *      CLOUDY    73  64  73 S26G36    29.70F
CHEROKEE *     CLOUDY    70  67  88 S13G18    29.67R
DENISON *      CLOUDY    73  64  73 S23G39    29.73R
LE MARS *      CLOUDY    75  66  73 S23G36    29.64S
ORANGE CITY *  CLOUDY    72  66  83 S23G36    29.65R
SHELDON *      CLOUDY    70  66  88 S9G18     29.64R
SIOUX CITY     LGT RAIN  72  68  87 S7G20     29.67R
SPENCER        TSTM      67  65  93 S46G58    29.66F SQUALL  FOG
STORM LAKE *   CLOUDY    70  64  83 S25G32    29.65F
$$

IAZ055>058-069>071-079>083-090>094-280800-
   SOUTHWEST IOWA

CITY           SKY/WX    TMP DP  RH WIND       PRES   REMARKS
ATLANTIC *     CLOUDY    73  64  73 S17G30    29.73F
AUDUBON *      CLOUDY    72  64  78 S20G29    29.73F
CLARINDA *       N/A     73  66  78 S15G22    29.78F
COUNCIL BLFS * RAIN      72  70  94 SW16G37   29.81R
CRESTON *      CLOUDY    72  64  78 S22G28    29.81F
HARLAN  *      CLOUDY    73  66  78 S21G30    29.77R
LAMONI         MOCLDY    70  64  81 S10       29.85S
RED OAK *      CLOUDY    73  66  78 S20G26    29.75F
SHENANDOAH *   MOCLDY    75  66  73 S21G31    29.75F
$$

IAZ047>049-059>061-072>074-084-280800-
   CENTRAL IOWA

CITY           SKY/WX    TMP DP  RH WIND       PRES   REMARKS
AMES           CLOUDY    68  60  75 S13       29.79F
ANKENY *       CLOUDY    68  59  73 S13       29.81F
BOONE *        CLOUDY    70  61  73 S14G22    29.77F
CHARITON *     CLOUDY    70  61  73 S14       29.84S
DES MOINES     CLOUDY    72  62  71 S18G25    29.79F
GRINNELL*      PTCLDY    68  54  60 S16       29.85F
KNOXVILLE *    CLOUDY    68  57  68 S13G18    29.82F
MARSHALLTOWN   CLOUDY    67  54  63 SE13      29.82S
NEWTON *       CLOUDY    68  55  64 S14       29.83F
PELLA *        CLOUDY    69  56  62 S10       29.85S
PERRY *          N/A     72  61  69 S17G24    29.76F
$$

IAZ004>006-015-016-023>025-035-036-280800-
   NORTH CENTRAL IOWA

CITY           SKY/WX    TMP DP  RH WIND       PRES   REMARKS
ALGONA *       CLOUDY    70  59  68 S15G22    29.72F
CLARION *        N/A     70  57  64 S22       29.74F
ESTHERVILLE    TSTM      68  63  84 S21G33    29.69R
FORT DODGE *   CLOUDY    70  57  64 S15G23    29.74F
MASON CITY     CLOUDY    66  51  58 SE18G25   29.78F
FOREST CITY *  CLOUDY    70  46  43 SE20      29.76F
WEBSTER CITY * CLOUDY    70  57  64 S17G25    29.74F
IOWA FALLS *     N/A     68  54  62 SE17      29.81F
$$

IAZ007>011-017>019-026>030-037>042-050>054-066-280800-
   NORTHEAST IOWA

CITY           SKY/WX    TMP DP  RH WIND       PRES   REMARKS
CEDAR RAPIDS   CLOUDY    66  53  63 S15       29.87F
CHARLES CITY * CLOUDY    66  48  52 S14G21    29.83S
CLINTON *      CLOUDY    60  52  74 SE9       29.94F
DECORAH *      CLOUDY    63  48  59 S13G20    29.85S
DUBUQUE        PTCLDY    59  48  67 SE13      29.92F
MONTICELLO *   MOCLDY    61  50  67 SE7       29.91F
OELWEIN *      CLOUDY    66  50  55 SE16G22   29.86F
WATERLOO       CLOUDY    66  50  56 S17       29.83F
$$

IAZ064-065-067-068-078-280800-
   EAST CENTRAL IOWA

CITY           SKY/WX    TMP DP  RH WIND       PRES   REMARKS
IOWA CITY      CLOUDY    66  53  63 SE10      29.91F
MT. PLEASANT * PTCLDY    65  51  60 SE13G18   29.90F
MUSCATINE *    MOCLDY    64  52  63 SE8       29.92F
QUAD CITIES    CLEAR     62  51  67 SE9       29.92F
$$

IAZ062-063-075>077-085>089-095>099-280800-
   SOUTHEAST IOWA

CITY           SKY/WX    TMP DP  RH WIND       PRES   REMARKS
BURLINGTON     PTCLDY    68  54  60 S21G29    29.92F
FAIRFIELD *    CLEAR     70  52  52 S16       29.89R
FORT MADISON * PTCLDY    66  54  63 S10G17    29.92F
KEOKUK *       MOCLDY    66  54  63 SE9       29.90F
OSKALOOSA *    MOCLDY    67  54  62 S12       29.87R
OTTUMWA        CLOUDY    69  54  58 S9        29.88F
WASHINGTON *   PTCLDY    64  54  68 S9        29.90F
$$

ABBREVIATIONS USED IN REMARKS
   TC - TEMPERATURES IN CELSIUS
  WCI - WIND CHILL INDEX
   HX - HEAT INDEX
  VSB - VISIBILITY
$$





USA.gov is the U.S. government's official web portal to all federal, state and local government web resources and services.